Temp
22 22 21 23 23 24 24 23 23 24 24 22 24 25 25 26 26 26 27 28 28 28 29 27 23 21 20 20 20 20 20 20 19 19 19 17 16 16 16 15 16 16 15 15
21 21 23 24 22 21 22 22 23 24 24 23 23 23 25 26 26 27 27 28 29 29 28 25 22 21 20 20 20 19 19 19 18 18 18 18 18 16 15 15 16 16 15 15
22 24 23 22 21 21 22 21 23 23 23 23 23 23 26 25 26 26 26 26 27 27 27 24 22 20 19 20 19 19 19 18 18 16 16 16 16 16 15 15 16 16 15 14
21 23 21 20 21 22 21 23 22 21 21 22 22 23 25 24 25 26 26 25 25 24 24 24 21 20 19 19 17 18 17 17 17 16 16 17 18 18 18 17 16 16 16 15
22 20 21 21 22 22 22 21 21 21 21 22 22 21 25 22 24 27 25 22 21 21 22 21 20 19 18 17 17 17 16 16 16 16 16 17 17 17 17 16 15 15 14 13
21 23 22 22 23 22 21 20 20 20 21 20 23 22 25 23 24 26 25 22 20 19 20 20 19 18 17 16 16 15 15 15 15 15 15 16 16 16 16 16 14 14 14 14
22 22 22 22 21 21 20 20 19 19 19 21 21 21 24 24 22 25 25 23 19 19 19 19 18 18 17 16 14 14 14 14 15 15 15 15 15 14 15 14 13 13 13 13
20 21 22 22 22 22 20 21 18 17 20 21 19 20 23 22 21 21 21 20 18 18 18 16 18 17 17 16 14 14 14 13 13 13 12 13 13 13 13 13 13 13 13 13
17 20 23 22 22 23 21 19 22 19 18 18 21 22 23 21 22 20 20 18 17 17 15 15 18 17 17 16 13 14 14 13 12 12 13 12 12 13 13 13 13 13 13 13
15 14 19 20 21 21 22 22 18 17 17 17 21 22 22 21 22 22 19 18 17 14 14 17 17 17 16 16 14 13 13 13 12 12 12 13 12 13 13 12 12 12 12 12
11 12 16 17 19 20 20 19 20 20 19 20 21 21 22 22 20 18 18 17 17 15 15 17 17 16 16 15 15 14 13 13 12 12 12 12 12 11 11 11 11 11 11 11
12 9 12 15 18 18 16 16 20 19 19 20 21 22 21 20 19 17 17 16 17 16 15 17 17 16 15 15 15 14 13 13 12 11 11 11 11 11 11 10 10 10 10 11
12 12 11 15 18 15 11 10 11 11 16 19 19 21 20 20 19 17 17 17 17 17 15 17 16 16 16 16 15 15 13 12 11 11 12 11 10 10 10 10 10 10 10 10
10 10 10 11 14 10 10 9 8 9 13 17 20 19 18 18 18 19 18 17 18 18 16 17 14 15 16 16 16 15 13 12 11 11 11 10 10 9 10 10 10 10 10 10
9 9 11 12 12 12 11 12 11 9 10 10 11 14 18 17 17 18 18 18 17 17 17 17 14 14 16 16 16 15 13 12 11 11 10 9 9 9 9 10 10 9 10 10
9 8 10 10 12 12 12 13 13 12 9 10 11 11 15 17 18 18 19 18 18 18 17 17 15 14 16 16 15 14 12 11 10 11 10 8 9 9 9 9 9 9 9 9
8 8 9 9 12 12 11 13 13 14 14 11 12 14 15 17 17 17 18 18 18 18 18 17 16 15 14 16 16 14 12 11 11 10 10 9 9 9 9 8 9 9 9 9
7 7 8 8 10 8 13 15 13 13 15 11 11 15 16 16 16 16 17 17 17 17 18 18 18 16 13 15 15 14 12 11 10 10 9 9 9 8 8 8 8 8 9 9
8 8 6 7 9 11 13 13 13 12 14 15 13 14 17 15 15 16 16 16 16 16 17 17 18 17 14 15 15 14 12 11 10 10 9 9 8 8 7 7 7 8 8 8
8 8 6 8 7 8 14 15 13 13 12 14 15 15 16 15 16 18 15 15 16 16 16 16 17 17 14 14 15 13 13 11 11 10 9 8 8 8 8 8 7 7 7 7
7 6 6 8 7 10 14 13 13 12 13 13 14 14 14 14 14 14 14 15 15 15 15 15 15 16 14 14 14 14 13 12 11 9 8 8 8 8 9 8 7 7 7 8
9 7 7 7 8 9 14 12 12 14 13 13 13 13 13 13 13 13 14 14 15 15 15 14 14 14 13 13 14 14 13 12 10 9 8 8 8 8 9 9 8 8 8 8
9 10 9 7 10 13 12 13 14 14 14 13 13 13 13 13 13 13 14 14 15 15 15 14 13 13 12 13 14 14 14 11 9 8 8 7 7 9 8 8 8 8 8 8
11 11 9 9 11 12 12 13 13 13 13 13 13 13 13 13 13 13 14 14 15 15 15 14 13 12 11 12 14 14 13 11 9 8 7 7 7 9 8 8 8 8 8 8
9 9 10 11 12 12 13 12 13 13 13 12 13 13 13 13 13 13 13 14 14 14 14 14 13 12 11 12 13 13 12 10 9 8 7 7 7 9 8 8 8 8 8 8
10 10 10 11 12 12 13 15 14 13 13 14 12 13 13 12 12 13 12 13 13 14 14 14 13 12 11 11 12 12 11 10 9 7 7 7 8 9 8 7 6 6 7 7
Height
775 779 779 770 772 769 771 778 776 766 767 772 761 753 746 741 740 738 733 728 725 728 731 738 747 753 757 760 764 768 771 774 775 777 780 782 782 783 784 786 789 789 790 791
782 775 762 764 771 776 774 777 771 761 762 767 760 753 741 736 730 725 723 719 716 717 724 737 744 749 753 757 762 765 768 770 773 775 776 778 779 781 782 783 786 787 788 788
766 756 758 768 772 776 772 773 767 766 762 761 756 752 731 728 722 719 718 717 715 714 718 730 739 745 751 756 760 763 766 768 770 771 773 775 778 778 779 780 782 784 784 785
767 754 763 769 768 767 770 758 765 769 772 770 758 755 731 729 723 715 712 712 715 718 720 724 737 743 749 755 758 761 764 766 768 769 771 772 772 774 775 777 779 780 781 783
759 762 761 764 757 762 761 760 764 765 765 762 759 764 727 735 727 712 713 718 721 722 721 725 735 742 748 753 757 760 762 765 767 768 769 769 771 773 774 775 776 777 778 780
752 746 754 751 749 751 756 762 767 769 764 766 745 753 727 730 721 710 712 717 722 725 725 728 736 743 748 752 756 759 761 764 766 767 767 769 770 771 773 774 774 774 776 779
745 744 743 747 754 750 759 766 772 779 771 754 748 752 729 718 722 714 711 713 723 725 727 731 737 742 748 751 756 759 761 763 765 766 768 769 769 770 772 773 773 774 777 778
760 751 736 732 736 744 753 751 766 774 759 752 758 751 725 720 719 718 717 719 724 727 730 736 738 743 749 752 756 759 761 763 764 765 769 768 768 770 771 771 772 773 775 777
767 745 727 731 728 731 742 752 735 754 759 763 742 729 718 719 714 719 717 721 725 729 738 741 740 744 748 753 757 759 761 763 764 768 770 768 769 771 772 771 771 773 774 775
781 777 745 740 734 728 726 730 757 764 766 762 734 729 724 720 715 711 718 722 725 735 740 739 741 745 749 753 757 760 762 764 765 768 769 769 771 772 772 772 772 772 771 773
800 791 760 753 739 730 731 740 732 736 740 729 730 728 710 716 721 722 720 724 726 733 737 739 742 747 751 754 756 761 763 764 766 768 769 770 772 772 772 772 771 771 770 770
799 802 777 757 737 738 743 742 721 725 729 725 721 717 709 715 723 727 727 726 727 731 737 738 742 747 751 754 757 760 763 764 766 768 768 770 771 772 772 772 772 771 770 769
797 784 780 753 734 748 767 774 769 756 734 719 726 713 711 711 723 727 726 726 727 729 736 736 742 745 749 752 756 758 763 765 766 767 769 770 771 772 772 772 772 772 770 768
804 794 790 772 750 775 773 776 779 781 752 723 708 717 720 720 727 724 725 725 726 728 734 735 743 745 746 750 754 757 762 765 766 768 769 770 771 772 773 774 773 772 770 768
803 795 778 769 766 762 767 762 766 778 773 766 760 745 723 728 728 721 726 724 725 727 730 734 740 744 744 748 752 756 762 765 766 768 770 771 772 773 773 774 774 774 771 771
797 795 782 776 763 757 750 749 747 753 769 770 766 758 739 728 727 721 720 723 724 725 728 733 740 742 742 745 750 755 760 764 766 768 771 771 772 774 774 776 776 775 774 775
799 795 783 772 755 750 745 736 738 741 740 756 752 744 738 729 730 725 722 719 723 719 722 726 731 737 740 741 746 752 756 761 766 768 771 772 773 775 777 778 778 779 779 779
796 791 787 778 759 760 732 728 735 732 727 745 752 737 730 730 730 727 723 721 721 720 720 721 724 729 736 738 743 749 754 758 764 767 772 773 774 777 779 780 781 783 783 784
781 784 790 784 760 740 729 728 730 733 727 726 738 734 724 730 726 725 724 723 724 722 720 718 717 722 731 735 741 747 752 757 762 766 771 773 775 778 780 782 785 786 788 789
770 778 785 772 769 754 716 715 727 729 729 727 723 725 728 729 721 714 726 724 723 722 720 715 712 716 725 732 738 744 749 755 761 764 770 774 776 779 781 784 788 790 793 794
764 771 767 762 767 739 716 723 729 728 727 726 728 731 732 729 726 727 726 724 725 722 717 714 713 715 722 729 736 742 747 752 759 764 769 774 777 780 784 787 792 795 798 800
750 762 762 762 753 740 716 725 723 717 725 727 731 732 734 731 728 728 724 722 723 720 716 715 714 717 722 727 734 740 746 750 758 764 769 775 778 782 786 790 795 799 801 805
749 742 741 754 725 718 721 715 717 719 719 725 729 730 731 730 728 726 721 721 722 719 717 716 716 719 722 727 732 738 744 750 756 763 769 775 779 784 789 792 796 801 805 808
732 735 736 736 723 723 721 718 719 721 721 720 720 720 723 725 724 723 722 721 722 720 719 717 717 719 723 727 732 737 743 750 755 761 768 775 778 785 790 794 798 802 806 810
739 736 727 720 718 717 715 715 715 715 720 724 722 721 721 722 724 724 723 722 722 719 718 717 716 719 722 726 730 735 742 747 754 760 768 774 778 785 791 795 800 803 807 811
730 724 721 710 709 712 708 706 708 711 714 717 722 721 722 724 723 723 721 721 721 717 716 715 715 716 721 725 729 733 740 744 751 757 766 773 776 783 790 796 800 804 807 810
Wind_Speed
12 11 16 19 17 18 13 12 15 15 6 9 14 19 21 16 17 18 19 18 16 16 16 19 16 17 15 13 14 14 13 11 9 9 12 12 13 12 16 14 13 12 12 13
8 19 19 13 11 15 17 18 20 18 12 13 16 18 22 22 23 22 21 21 20 18 15 12 18 18 17 16 15 13 11 10 9 10 10 10 10 13 16 16 13 13 14 14
21 10 9 15 17 16 17 19 20 20 16 19 20 21 18 10 9 10 13 14 14 16 17 14 16 19 18 17 14 11 9 8 9 9 8 8 8 6 11 12 13 15 15 15
16 20 12 11 17 17 18 15 15 15 12 10 2 9 13 13 15 11 9 11 11 10 11 15 15 19 18 15 12 9 8 7 8 9 10 12 10 10 11 11 13 11 12 12
7 7 16 21 22 12 16 5 7 7 11 15 16 9 9 4 14 6 3 2 3 5 10 16 16 19 17 14 12 8 7 6 8 9 10 9 10 9 7 6 7 10 9 13
22 14 12 16 14 18 3 8 2 6 7 13 16 13 10 6 5 5 1 2 3 5 10 14 17 18 16 13 11 8 8 6 7 7 6 9 11 10 9 7 6 7 9 12
14 21 22 15 13 11 16 7 3 6 8 14 1 6 14 7 4 13 12 1 5 8 12 15 16 15 16 14 11 10 9 8 7 6 5 6 7 6 6 6 6 6 6 9
16 18 17 18 26 17 22 17 7 9 12 11 2 8 4 2 2 9 5 3 8 11 13 13 14 15 15 14 12 12 11 10 8 7 5 5 6 6 6 6 8 7 7 9
8 22 14 12 18 22 18 17 16 6 5 9 9 9 8 5 2 3 4 6 12 13 12 13 14 15 15 14 13 13 12 11 10 8 7 7 6 5 5 5 5 5 6 7
5 11 18 18 13 18 22 14 7 5 7 8 10 13 8 5 9 13 2 8 13 13 12 13 12 15 14 14 13 12 12 12 11 8 7 6 5 5 4 3 2 3 4 6
6 6 14 14 12 17 14 14 11 8 10 9 8 5 6 8 7 10 1 9 13 14 13 13 11 13 13 13 13 13 11 12 10 7 6 6 4 4 3 3 2 3 3 7
3 5 10 15 20 12 9 14 20 12 14 13 10 6 10 7 5 5 2 8 13 14 13 13 12 14 13 13 12 12 10 10 9 7 7 7 6 4 4 4 2 1 2 4
7 5 10 15 11 5 4 3 11 11 11 17 13 6 8 12 1 4 3 5 10 14 14 14 12 12 15 14 12 13 10 9 8 8 7 6 5 5 5 4 3 3 1 1
12 13 15 15 14 5 7 2 5 6 5 9 16 10 11 8 7 5 2 4 7 11 13 14 12 12 15 14 13 13 11 9 9 8 8 8 7 6 6 4 5 5 7 6
5 14 19 22 23 22 16 16 8 6 4 6 11 14 11 13 10 10 4 1 5 9 12 14 14 12 16 15 14 14 11 10 10 10 8 9 9 7 7 7 7 9 10 9
5 9 14 19 23 24 26 22 18 13 8 10 10 21 19 11 10 10 9 0 4 8 11 12 13 14 16 17 16 16 14 12 11 11 10 10 10 9 9 9 11 13 14 14
13 10 12 19 21 21 24 22 22 19 16 11 13 18 19 17 9 7 9 7 4 3 7 12 15 15 20 21 20 19 18 15 12 12 11 12 12 12 11 11 14 16 20 21
19 16 12 13 16 20 14 11 8 14 16 18 11 16 16 11 8 9 3 6 7 6 3 8 12 20 23 23 22 21 20 18 16 15 13 13 14 14 13 14 16 17 21 25
21 18 10 11 15 17 8 10 13 11 12 13 17 20 16 9 6 6 8 9 8 9 8 9 15 20 23 25 25 24 21 19 18 18 15 15 16 16 16 17 17 20 23 23
15 17 12 12 12 9 12 7 4 4 11 7 10 16 12 9 6 4 10 11 11 11 12 10 8 18 23 26 27 26 24 21 19 20 18 17 17 19 20 21 18 18 20 20
5 8 18 17 14 10 10 10 1 8 4 9 7 5 1 3 3 7 9 9 12 13 15 6 8 17 22 26 28 26 25 23 21 21 21 19 20 20 20 20 17 18 17 18
8 4 5 12 11 19 8 8 8 4 9 6 3 2 3 5 6 7 8 9 11 12 14 2 7 13 19 26 28 26 24 23 23 24 24 20 22 18 18 18 16 16 18 19
7 7 6 6 10 6 3 1 4 5 6 5 3 3 1 6 9 9 9 9 10 13 13 2 6 11 17 24 28 26 25 25 26 27 24 21 21 18 18 19 19 17 16 18
15 10 8 7 12 17 15 9 6 7 4 2 5 4 6 7 9 11 10 9 9 11 12 4 6 10 16 22 26 26 27 27 29 28 25 22 22 20 18 18 18 18 16 16
9 5 10 17 16 15 13 11 10 11 10 7 7 6 10 12 10 10 11 10 10 11 11 5 6 11 16 21 24 26 28 29 29 29 25 22 23 21 19 16 15 15 14 15
9 12 11 10 8 10 14 11 12 12 13 12 8 10 12 12 13 12 11 11 13 12 13 8 6 10 15 21 24 26 29 30 31 28 26 23 23 22 19 18 15 14 15 17
Wind_Direction
205 217 219 233 225 257 272 278 277 278 258 290 266 274 279 278 271 260 258 254 237 231 232 214 200 198 192 187 188 195 198 202 202 207 212 219 226 230 235 233 226 225 218 208
207 232 239 242 252 238 248 265 272 281 290 273 277 283 287 280 264 256 256 254 247 231 216 195 192 188 191 192 194 195 198 206 213 217 223 229 227 231 230 234 228 224 221 213
230 238 241 222 224 235 241 252 266 276 289 286 272 278 266 283 265 256 256 257 258 239 213 190 183 184 183 188 188 190 199 211 220 217 211 207 207 218 211 217 220 216 215 216
259 260 219 215 235 230 253 252 260 272 279 273 348 294 292 286 282 267 279 254 233 218 220 184 178 174 179 175 170 177 190 203 210 200 201 203 208 217 215 212 213 214 210 215
249 230 228 235 236 218 246 205 247 259 267 278 261 263 268 257 284 197 27 31 203 211 192 175 174 167 164 160 162 163 168 187 196 196 202 205 218 219 208 201 209 210 212 216
254 262 255 249 253 230 223 176 230 266 264 252 254 226 270 236 239 253 236 28 163 156 168 161 159 156 152 150 148 146 151 160 177 188 195 214 220 213 209 200 203 196 205 205
249 243 237 234 239 220 209 201 208 249 226 259 51 232 254 252 257 298 307 295 162 155 154 152 155 154 152 150 144 143 150 139 151 142 172 186 180 177 192 171 176 175 193 201
269 272 221 217 223 215 209 206 180 229 248 256 122 239 241 159 257 286 284 245 157 161 149 154 155 150 153 149 144 145 142 133 130 127 155 144 143 160 165 162 158 159 192 214
312 255 263 268 233 225 207 221 226 254 239 272 245 247 266 249 239 232 309 178 166 154 157 161 154 153 152 152 149 149 146 134 128 144 153 139 145 151 160 152 156 179 199 211
314 289 270 276 283 255 223 206 176 179 216 221 232 241 244 33 339 339 294 173 160 151 160 164 158 156 154 151 145 145 147 142 143 157 155 140 154 145 141 138 168 217 219 217
318 277 274 315 243 238 214 226 226 202 227 231 230 238 152 124 347 332 37 168 162 159 163 164 162 160 157 156 154 151 149 146 152 165 152 143 143 137 135 139 182 237 240 236
285 288 279 289 284 323 290 279 224 207 194 228 254 186 147 83 38 357 99 163 168 164 168 169 163 162 162 162 161 154 153 154 155 154 142 138 137 136 130 115 88 17 273 253
324 272 287 271 245 152 44 7 351 328 304 215 207 219 123 103 83 65 92 169 180 174 172 175 167 171 170 169 168 161 157 154 149 148 146 138 141 137 118 107 92 56 82 24
283 258 252 262 288 318 273 302 75 335 282 252 217 131 145 84 338 344 320 211 191 192 182 183 178 183 176 174 171 167 158 160 151 147 145 137 136 124 109 110 92 81 78 80
264 269 266 258 267 281 265 278 258 244 322 291 357 309 309 324 313 325 22 181 196 194 199 195 188 187 184 177 176 164 160 162 156 147 146 136 134 117 116 110 101 90 94 104
262 272 276 277 270 269 276 274 269 254 232 249 293 296 285 285 299 319 326 262 245 214 210 205 201 191 198 184 179 166 161 162 157 147 148 137 127 115 107 114 109 97 102 110
271 263 267 272 267 269 261 262 260 258 234 222 263 270 278 283 297 308 327 328 278 256 216 209 204 202 201 188 184 175 163 158 157 144 147 135 125 118 114 116 116 104 107 112
249 254 263 270 278 260 261 259 264 264 253 185 236 245 266 285 294 318 48 33 12 26 332 243 217 203 200 192 185 173 162 158 154 145 148 138 127 122 119 113 115 116 114 114
227 236 251 260 269 269 240 233 229 217 242 226 203 234 242 271 291 151 23 24 356 336 319 293 233 207 190 192 183 170 163 158 156 150 153 145 135 127 120 112 114 119 117 105
222 223 228 244 254 252 235 222 153 213 237 161 197 228 239 274 247 211 352 351 344 341 328 318 214 189 183 189 179 171 163 161 163 156 153 149 139 132 124 121 117 116 111 104
221 210 207 219 240 264 262 160 265 216 113 138 139 141 259 273 318 328 327 339 335 333 339 338 180 181 180 183 178 175 166 166 164 154 149 147 141 133 131 124 121 118 113 109
271 277 212 224 229 244 164 165 221 103 137 146 155 207 261 280 306 304 325 338 333 335 344 344 181 177 179 179 179 176 173 162 158 155 149 148 145 135 137 136 132 128 124 119
253 228 267 217 238 14 212 231 187 155 145 152 169 156 320 306 303 317 325 336 329 336 344 339 194 176 178 181 183 176 172 160 155 153 149 150 145 140 144 142 137 135 134 131
274 241 245 227 243 249 253 248 230 194 228 258 282 287 311 323 317 318 318 323 318 333 336 316 195 186 178 184 186 180 167 163 157 150 150 154 144 143 148 147 147 143 145 144
271 230 251 252 257 278 273 243 257 237 217 228 250 270 300 306 298 298 305 309 306 316 325 313 204 199 189 184 186 179 170 164 158 151 154 157 147 150 153 151 150 151 150 156
231 242 243 258 266 257 269 269 253 251 260 260 223 271 276 275 285 286 284 289 293 302 314 306 230 199 196 188 185 177 173 167 160 151 156 161 151 155 156 150 138 150 155 157